This is the latest recevied weather packets stored in our database for station/object KJ5PEC-13. If no packets are shown the sender has not sent any weather packets the latest 10 day(s).
| Time | Temp. | Humidity | Pressure | Rain* | Wind** | Luminosity | Snow |
|---|---|---|---|---|---|---|---|
| 1788147516 | 10.56° C | 89% | 1033.3 hPa | 1.27 mm | - | 0 W/m² | - |
| 1788147216 | 10.56° C | 89% | 1033.2 hPa | 1.27 mm | - | 0 W/m² | - |
| 1788146912 | 11.11° C | 87% | 1033.1 hPa | 0 mm | - | 0 W/m² | - |
| 1788146612 | 11.11° C | 86% | 1032.5 hPa | 0 mm | - | 0 W/m² | - |
| 1788146307 | 11.11° C | 84% | 1032.5 hPa | 0 mm | - | 0 W/m² | - |
| 1788146007 | 11.11° C | 84% | 1032.3 hPa | 0 mm | - | 0 W/m² | - |
| 1788145702 | 11.11° C | 83% | 1032.3 hPa | 0 mm | - | 0 W/m² | - |
| 1788145400 | 11.67° C | 81% | 1032.1 hPa | 0 mm | - | 0 W/m² | - |
| 1788145099 | 11.67° C | 78% | 1031.8 hPa | 0 mm | - | 0 W/m² | - |
| 1788144794 | 11.67° C | 79% | 1031.6 hPa | 0 mm | - | 0 W/m² | - |
| 1788144500 | 11.67° C | 79% | 1031.5 hPa | 0 mm | - | 0 W/m² | - |
| 1788144189 | 11.67° C | 78% | 1031.5 hPa | 0 mm | - | 0 W/m² | - |
| 1788143888 | 11.67° C | 78% | 1031.6 hPa | 0 mm | - | 0 W/m² | - |
| 1788143586 | 11.67° C | 78% | 1031.8 hPa | 0 mm | - | 0 W/m² | - |
| 1788143282 | 11.67° C | 79% | 1031.5 hPa | 0 mm | - | 0 W/m² | - |
| 1788142981 | 11.67° C | 79% | 1031.2 hPa | 0 mm | - | 0 W/m² | - |
| 1788142676 | 11.67° C | 79% | 1031.5 hPa | 0 mm | - | 0 W/m² | - |
| 1788142376 | 11.67° C | 80% | 1031.4 hPa | 0 mm | - | 0 W/m² | - |
| 1788142072 | 11.67° C | 78% | 1031.1 hPa | 0 mm | - | 0 W/m² | - |
| 1788141771 | 11.67° C | 78% | 1030.8 hPa | 0 mm | - | 0 W/m² | - |
| 1788141467 | 11.67° C | 80% | 1030.8 hPa | 0 mm | - | 0 W/m² | - |
| 1788141162 | 11.67° C | 80% | 1030.7 hPa | 0 mm | - | 0 W/m² | - |
| 1788140857 | 11.67° C | 80% | 1030.8 hPa | 0 mm | - | 1 W/m² | - |
| 1788140557 | 11.67° C | 81% | 1030.8 hPa | 0 mm | - | 2 W/m² | - |
| 1788140254 | 12.22° C | 79% | 1031.2 hPa | 0 mm | - | 3 W/m² | - |
* Rain latest hour (hover to see other rain measurements)
** Current wind speed in m/s (hover to see current wind gust speed)